KO4RJX-11 Weather Reports


time (UTC)temp
C
wind
direction
speed
KPH
gust
KPH
rain 1hr
cm
rain 24hr
cm
rain mn
cm
humidity
%
barometer
mb
20260508044628 11 1 3.2 6.4 0.00 0.00 0.00 99 1008.6
20260508043949 11 349 3.2 8.0 0.00 0.00 0.00 99 1008.6
20260508043518 11 0 4.8 8.0 0.00 0.00 0.00 99 1008.3
20260508042628 11 358 4.8 6.4 0.00 0.00 0.00 99 1008.3
20260508041949 11 2 1.6 6.4 0.00 0.00 0.00 99 1008.3
20260508041308 11 357 3.2 6.4 0.00 0.00 0.00 98 1008.3
20260508040628 11 351 1.6 6.4 0.00 0.00 0.00 99 1008.3
20260508035949 11 6 3.2 8.0 0.00 0.00 2.82 99 1007.9
20260508035309 11 3 3.2 9.7 0.00 0.00 2.82 99 1007.9
20260508034628 11 358 4.8 9.7 0.00 0.00 2.82 98 1007.9
20260508033949 11 12 3.2 9.7 0.00 0.00 2.82 100 1007.9
20260508033308 11 354 4.8 11.3 0.00 0.00 2.82 99 1007.6
20260508032628 11 6 8.0 11.3 0.00 0.00 2.82 100 1007.3
20260508031949 11 23 3.2 8.0 0.00 0.00 2.82 100 1007.3
20260508030628 11 2 4.8 6.4 0.00 0.00 2.82 100 1007.6
20260508025948 11 23 3.2 4.8 0.00 0.00 2.82 100 1007.3
20260508025308 11 14 3.2 4.8 0.00 0.00 2.82 100 1007.3
20260508024628 11 29 1.6 4.8 0.00 0.00 2.82 100 1007.3
20260508023948 11 43 1.6 4.8 0.00 0.00 2.82 100 1007.3
20260508023519 11 28 3.2 4.8 0.00 0.00 2.82 99 1007.3
20260508022628 11 9 1.6 6.4 0.00 0.00 2.82 99 1007.3
20260508021948 11 37 3.2 6.4 0.00 0.00 2.82 99 1006.9
20260508021309 11 13 3.2 6.4 0.00 0.00 2.82 98 1007.3
20260508020629 12 13 4.8 6.4 0.00 0.00 2.82 97 1007.3
20260508015948 11 2 3.2 4.8 0.00 0.00 2.82 98 1007.3
20260508015308 11 336 1.6 4.8 0.00 0.00 2.82 98 1006.9
20260508014628 11 3 3.2 4.8 0.00 0.00 2.82 98 1006.9
20260508013948 11 77 1.6 6.4 0.00 0.00 2.82 99 1006.6
20260508013308 11 37 3.2 4.8 0.00 0.00 2.82 100 1006.2
20260508012628 11 48 3.2 4.8 0.00 0.00 2.82 100 1006.2
20260508011949 11 339 1.6 6.4 0.00 0.00 2.82 99 1006.2
20260508011308 11 47 4.8 6.4 0.00 0.00 2.82 99 1006.2
20260508010628 11 47 3.2 4.8 0.00 0.00 2.82 100 1006.2
20260508010158 11 66 3.2 6.4 0.00 0.00 2.82 99 1006.2
20260508005308 11 12 3.2 6.4 0.00 0.00 2.82 100 1006.6
20260508004629 11 90 3.2 11.3 0.00 0.00 2.77 97 1006.2
20260508003948 11 358 6.4 11.3 0.00 0.00 2.67 96 1006.9
20260508003308 12 2 3.2 9.7 0.00 0.00 2.59 94 1006.2
20260508002628 12 3 4.8 9.7 0.00 0.00 2.54 91 1005.9
20260508001949 12 17 4.8 12.9 0.00 0.00 2.54 92 1005.6
20260508001308 11 44 4.8 11.3 0.00 0.00 2.54 92 1005.2
20260508000628 12 68 4.8 9.7 0.00 0.00 2.54 92 1005.2
20260507235948 12 46 3.2 11.3 0.00 0.00 2.54 93 1005.2
20260507235309 12 48 6.4 14.5 0.00 0.00 2.54 92 1005.2
20260507234628 12 36 6.4 11.3 0.00 0.00 2.54 90 1005.2
20260507233949 12 34 6.4 16.1 0.00 0.00 2.54 91 1005.2
20260507233308 12 41 8.0 22.5 0.00 0.00 2.54 90 1005.2
20260507232629 12 31 8.0 19.3 0.00 0.00 2.54 90 1005.2
20260507231948 12 38 6.4 16.1 0.00 0.00 2.54 91 1005.2
20260507231308 12 34 9.7 14.5 0.00 0.00 2.54 90 1005.2
20260507230628 12 30 8.0 20.9 0.00 0.00 2.54 91 1004.9
20260507225949 12 50 12.9 20.9 0.00 0.00 2.54 90 1004.9
20260507225308 12 20 8.0 20.9 0.00 0.00 2.54 91 1004.5
20260507224628 12 26 6.4 20.9 0.00 0.00 2.54 94 1004.9
20260507223948 12 57 8.0 17.7 0.00 0.00 2.54 93 1004.9
20260507223308 12 32 9.7 19.3 0.00 0.00 2.54 92 1004.5
20260507222838 12 34 8.0 20.9 0.00 0.00 2.54 93 1004.5
20260507221948 12 48 11.3 20.9 0.00 0.00 2.54 93 1004.5
20260507221309 12 42 6.4 12.9 0.00 0.00 2.54 95 1004.5
20260507220628 12 24 8.0 17.7 0.00 0.00 2.54 95 1004.9
20260507215948 12 24 8.0 19.3 0.00 0.00 2.54 94 1004.5
20260507215308 12 12 8.0 27.4 0.00 0.00 2.54 96 1004.5
20260507214628 11 46 14.5 27.4 0.00 0.00 2.54 95 1004.5
20260507213948 12 13 12.9 25.7 0.00 0.00 2.54 96 1004.2
20260507213308 12 18 12.9 20.9 0.00 0.00 2.54 97 1004.5
20260507212628 12 13 11.3 27.4 0.00 0.00 2.54 98 1004.5
20260507211948 12 7 11.3 27.4 0.00 0.00 2.54 98 1004.2
20260507211308 12 29 9.7 27.4 0.00 0.00 2.54 98 1004.2
20260507210628 12 35 14.5 27.4 0.00 0.00 2.54 96 1003.9
20260507205948 12 21 14.5 27.4 0.00 0.00 2.54 98 1003.9
20260507205308 12 12 14.5 24.1 0.00 0.00 2.54 98 1003.9
20260507204629 13 8 9.7 17.7 0.00 0.00 2.54 99 1003.9
20260507203948 13 21 9.7 20.9 0.00 0.00 2.49 100 1003.9
20260507203308 13 16 9.7 22.5 0.00 0.00 2.36 99 1003.5
20260507202628 13 26 9.7 22.5 0.00 0.00 2.36 99 1003.5
20260507201948 13 3 12.9 17.7 0.00 0.00 2.24 99 1003.5
20260507201308 13 11 8.0 19.3 0.00 0.00 2.11 100 1003.5
20260507200628 13 15 9.7 24.1 0.00 0.00 2.03 98 1003.5
20260507195948 13 27 11.3 20.9 0.00 0.00 1.96 97 1003.5
20260507195308 14 3 12.9 22.5 0.00 0.00 1.91 97 1003.5
20260507194628 15 10 12.9 22.5 0.00 0.00 1.91 97 1003.5
20260507193948 15 4 11.3 20.9 0.00 0.00 1.91 97 1003.5
20260507193309 15 27 11.3 25.7 0.00 0.00 1.91 94 1003.2
20260507192628 15 8 12.9 25.7 0.00 0.00 1.91 96 1003.5
20260507192200 15 18 12.9 25.7 0.00 0.00 1.91 96 1003.5
20260507191308 15 9 11.3 25.7 0.00 0.00 1.91 97 1003.2
20260507190841 15 11 9.7 22.5 0.00 0.00 1.91 97 1002.5
20260507185948 16 42 11.3 19.3 0.00 0.00 1.91 96 1002.8
20260507185308 16 29 9.7 19.3 0.00 0.00 1.91 97 1002.8
20260507184628 16 20 8.0 19.3 0.00 0.00 1.91 96 1003.2
20260507183948 16 3 6.4 16.1 0.00 0.00 1.91 96 1003.2
20260507183519 16 2 8.0 24.1 0.00 0.00 1.91 97 1002.8
20260507182628 16 5 11.3 25.7 0.00 0.00 1.91 95 1002.8
20260507182200 17 16 9.7 33.8 0.00 0.00 1.91 92 1002.8
20260507181308 21 346 6.4 25.7 0.00 0.00 1.91 90 1002.8
20260507180628 21 272 3.2 9.7 0.00 0.00 1.91 92 1002.8
20260507175949 21 274 4.8 9.7 0.00 0.00 1.91 91 1002.8
20260507175308 21 272 3.2 14.5 0.00 0.00 1.91 92 1002.8
20260507174628 21 233 9.7 14.5 0.00 0.00 1.91 90 1002.8
20260507173948 21 236 3.2 11.3 0.00 0.00 1.91 91 1002.5
20260507173308 21 233 4.8 12.9 0.00 0.00 1.91 93 1002.5
20260507172628 21 191 4.8 12.9 0.00 0.00 1.91 94 1002.2
20260507172201 21 191 4.8 8.0 0.00 0.00 1.91 95 1002.5
20260507171308 20 206 3.2 8.0 0.00 0.00 1.91 95 1002.5
20260507170628 20 176 4.8 8.0 0.00 0.00 1.88 93 1002.8
20260507165948 20 195 4.8 8.0 0.00 0.00 1.88 94 1003.2
20260507165308 20 262 3.2 8.0 0.00 0.00 1.88 94 1003.2
20260507164628 20 245 4.8 12.9 0.00 0.00 1.88 96 1003.5
20260507163948 20 230 4.8 12.9 0.00 0.00 1.88 96 1003.5
20260507163308 20 250 4.8 14.5 0.00 0.00 1.88 95 1003.9
20260507162628 20 262 6.4 17.7 0.00 0.00 1.88 94 1003.9
20260507161948 20 259 4.8 14.5 0.00 0.00 1.88 95 1004.2
20260507161308 20 248 6.4 14.5 0.00 0.00 1.88 94 1004.2
20260507160628 20 242 6.4 14.5 0.00 0.00 1.88 94 1004.2
20260507155948 20 246 6.4 14.5 0.00 0.00 1.88 93 1003.9
20260507155308 20 258 4.8 12.9 0.00 0.00 1.88 93 1003.9
20260507154628 20 212 4.8 12.9 0.00 0.00 1.88 94 1003.5
20260507153948 19 223 6.4 9.7 0.00 0.00 1.88 96 1003.9
20260507153308 19 219 4.8 8.0 0.00 0.00 1.85 96 1003.5
20260507152628 19 233 4.8 17.7 0.00 0.00 1.83 96 1003.9
20260507151948 19 235 4.8 25.7 0.00 0.00 1.78 96 1004.2
20260507151518 19 270 6.4 25.7 0.00 0.00 1.75 96 1004.2
20260507150628 19 243 9.7 17.7 0.00 0.00 1.73 96 1004.2
20260507145948 19 206 6.4 20.9 0.00 0.00 1.68 96 1004.5
20260507145308 19 238 9.7 19.3 0.00 0.00 1.60 95 1004.5
20260507144628 20 240 6.4 16.1 0.00 0.00 1.52 96 1004.5
20260507143948 20 247 6.4 19.3 0.00 0.00 1.45 95 1004.5
20260507143522 20 268 9.7 19.3 0.00 0.00 1.40 95 1004.5
20260507142628 20 240 6.4 17.7 0.00 0.00 1.37 94 1004.5
20260507141948 20 277 6.4 12.9 0.00 0.00 1.37 94 1004.5
20260507141308 20 283 3.2 6.4 0.00 0.00 1.35 96 1004.5
20260507140628 20 274 3.2 9.7 0.00 0.00 1.35 96 1004.5
20260507135948 20 221 3.2 9.7 0.00 0.00 1.35 95 1004.5
20260507135308 20 222 4.8 9.7 0.00 0.00 1.35 95 1004.9
20260507134628 20 277 1.6 6.4 0.00 0.00 1.35 96 1004.5
20260507133949 20 279 3.2 4.8 0.00 0.00 1.35 96 1004.5
20260507133308 20 287 3.2 6.4 0.00 0.00 1.35 96 1004.5
20260507132628 20 241 3.2 11.3 0.00 0.00 1.35 96 1004.5
20260507131948 20 208 3.2 11.3 0.00 0.00 1.35 97 1004.5
20260507131308 20 245 4.8 11.3 0.00 0.00 1.35 97 1004.5
20260507130628 20 242 6.4 12.9 0.00 0.00 1.35 97 1004.5
20260507125948 20 214 4.8 14.5 0.00 0.00 1.35 96 1004.2
20260507125308 20 190 8.0 14.5 0.00 0.00 1.35 96 1004.5
20260507124628 20 206 6.4 12.9 0.00 0.00 1.35 97 1004.5
20260507123948 20 219 6.4 12.9 0.00 0.00 1.35 98 1004.5
20260507123308 19 196 6.4 11.3 0.00 0.00 1.35 98 1004.5
20260507122628 19 193 4.8 11.3 0.00 0.00 1.35 99 1004.9
20260507121948 19 196 4.8 8.0 0.00 0.00 1.35 99 1004.9
20260507121308 19 226 4.8 9.7 0.00 0.00 1.35 99 1005.2
20260507120628 19 187 3.2 8.0 0.00 0.00 1.35 99 1004.9
20260507115948 19 188 4.8 8.0 0.00 0.00 1.35 98 1004.9
20260507115308 19 207 3.2 11.3 0.00 0.00 1.35 99 1005.2
20260507114628 18 197 4.8 9.7 0.00 0.00 1.35 99 1005.2
20260507114158 18 207 4.8 9.7 0.00 0.00 1.35 99 1005.2
20260507113519 18 190 4.8 9.7 0.00 0.00 1.35 98 1005.2
20260507112628 18 207 3.2 11.3 0.00 0.00 1.35 99 1005.2
20260507111949 18 207 6.4 11.3 0.00 0.00 1.35 99 1005.6
20260507111308 18 211 4.8 12.9 0.00 0.00 1.35 99 1005.2
20260507110628 18 226 4.8 12.9 0.00 0.00 1.35 98 1005.2
20260507105948 18 211 4.8 9.7 0.00 0.00 1.35 99 1005.2
20260507105308 18 219 4.8 9.7 0.00 0.00 1.35 99 1005.2
20260507104628 18 235 6.4 9.7 0.00 0.00 1.32 99 1004.9
20260507103948 18 221 4.8 12.9 0.00 0.00 1.32 99 1005.2
20260507103309 18 208 4.8 9.7 0.00 0.00 1.30 99 1004.9
20260507102628 18 210 4.8 12.9 0.00 0.00 1.30 99 1005.2
20260507101948 18 223 6.4 9.7 0.00 0.00 1.30 98 1005.2
20260507101521 18 222 4.8 12.9 0.00 0.00 1.30 98 1005.2
20260507100842 18 237 6.4 12.9 0.00 0.00 1.30 98 1004.9
20260507095948 18 218 6.4 12.9 0.00 0.00 1.27 98 1004.9
20260507095309 18 229 8.0 12.9 0.00 0.00 1.27 98 1004.9
20260507094628 18 231 6.4 12.9 0.00 0.00 1.27 98 1004.9
20260507093949 18 216 6.4 12.9 0.00 0.00 1.27 98 1004.9
20260507093309 18 227 4.8 11.3 0.00 0.00 1.27 98 1004.5
20260507092628 18 228 6.4 11.3 0.00 0.00 1.27 99 1004.9
20260507091948 18 210 6.4 14.5 0.00 0.00 1.27 99 1004.9
20260507091308 18 229 8.0 17.7 0.00 0.00 1.27 99 1004.9
20260507090628 18 238 6.4 17.7 0.00 0.00 1.27 99 1005.2
20260507085948 18 215 6.4 16.1 0.00 0.00 1.27 100 1005.2
20260507085519 18 202 8.0 16.1 0.00 0.00 1.24 100 1005.2
20260507084628 18 202 6.4 12.9 0.00 0.00 1.17 100 1005.2
20260507083948 18 191 4.8 11.3 0.00 0.00 1.07 100 1005.6
20260507083307 18 227 6.4 11.3 0.00 0.00 0.99 100 1005.6
20260507082628 18 224 4.8 9.7 0.00 0.00 0.97 100 1005.9
20260507081947 18 206 6.4 11.3 0.00 0.00 0.94 100 1005.6
20260507081307 18 227 6.4 11.3 0.00 0.00 0.91 100 1005.6
20260507080627 18 165 6.4 9.7 0.00 0.00 0.86 100 1004.9
20260507075947 18 172 1.6 4.8 0.00 0.00 0.84 100 1005.6
20260507075308 18 165 1.6 3.2 0.00 0.00 0.81 100 1005.9
20260507074840 18 179 1.6 6.4 0.00 0.00 0.79 100 1005.9
20260507074200 18 203 3.2 6.4 0.00 0.00 0.79 100 1005.9
20260507073307 18 155 3.2 8.0 0.00 0.00 0.76 100 1005.6
20260507072837 18 175 3.2 8.0 0.00 0.00 0.76 100 1005.9
20260507071947 18 171 3.2 6.4 0.00 0.00 0.76 100 1005.9
20260507071307 18 163 3.2 4.8 0.00 0.00 0.76 100 1005.9
20260507070627 18 200 3.2 4.8 0.00 0.00 0.76 100 1006.2
20260507065947 18 169 3.2 4.8 0.00 0.00 0.76 100 1006.2
20260507065308 18 165 1.6 3.2 0.00 0.00 0.76 100 1006.2
20260507064841 18 155 1.6 3.2 0.00 0.00 0.76 100 1006.2
20260507063948 18 141 1.6 3.2 0.00 0.00 0.76 100 1006.2
20260507063307 18 145 1.6 3.2 0.00 0.00 0.76 100 1006.6
20260507062627 18 89 1.6 4.8 0.00 0.00 0.76 100 1006.6
20260507061947 18 250 1.6 6.4 0.00 0.00 0.76 100 1007.3
20260507061307 18 230 4.8 6.4 0.00 0.00 0.76 100 1006.9
20260507060627 18 177 3.2 4.8 0.00 0.00 0.76 100 1006.2
20260507055947 18 193 3.2 6.4 0.00 0.00 0.76 100 1006.2
20260507055307 18 208 4.8 8.0 0.00 0.00 0.76 99 1006.6
20260507054627 19 202 3.2 9.7 0.00 0.00 0.76 99 1006.2
20260507053947 18 191 4.8 6.4 0.00 0.00 0.76 99 1006.2
20260507053517 18 200 3.2 9.7 0.00 0.00 0.76 99 1006.2
20260507052627 19 138 4.8 11.3 0.00 0.00 0.74 98 1005.9
20260507051947 19 261 3.2 11.3 0.00 0.00 0.64 97 1008.3
20260507051307 19 255 3.2 8.0 0.00 0.00 0.51 96 1008.3
20260507050627 19 280 3.2 9.7 0.00 0.00 0.46 95 1007.9
20260507045947 20 275 4.8 12.9 0.00 0.00 0.36 92 1008.3
20260507045307 20 291 6.4 12.9 0.00 0.00 0.18 85 1008.3